www.pogodaiklimat.ru

Погода и климат >> Архив погоды >> Словакия >> Малацки


ПОГОДА в Малацки

  • Прогноз погоды в Малацки
  • Монитор погоды в Малацки

АРХИВ ПОГОДЫ в Малацки

Время (UTC), дата Ветер
(напр.,м/с)
 
Видим.   Явления Облачность Т
(С)
Тd
(С)
f
(%)
Тe
(С)
Тes
(С)
Комфортность P
(гПа)
Po
(гПа)
Тmin
(С)
Tmax
(С)
R
(мм)
R24
(мм)
S
(см)
22 8.09 нст 2 <100 м н/о +16.2 +15.1 93 +16 +16 1014.2 989.5
23 8.09 нст 3 <100 м н/о +16.4 +14.6 89 +16 +16 1012.6 988.1
00 9.09 В 6 <100 м н/о +16.1 +13.8 86 +15 +15 1011.9 987.3
01 9.09 нст 3 <100 м н/о +16.2 +13.5 84 +16 +16 1011.6 987.0
02 9.09 нст 3 <100 м н/о +15.6 +14.1 91 +15 +15 1011.9 987.3
03 9.09 СЗ 1 8000 м в посл. час дождь 10/10 300 м
[Sc]
+15.5 +14.2 92 +16 +16 1011.0 986.4
04 9.09 СЗ 2 8000 м слаб. дождь 9/9 500 м
[Sc]
+15.2 +13.9 92 +15 +15 1010.8 986.2
05 9.09 З 5 1500 м гроза, ливневой дождь 10/10 90 м
[Cb cap]
+11.7 +10.6 93 +9 +9 1012.2 987.2
06 9.09 ЮЗ 2 8000 м в посл. час гроза {дождь} 10/10 180 м
[St]
+12.2 +11.4 95 +11 +11 1011.8 986.8 +11.6 18
07 9.09 ЮЗ 4 10 км слаб. дождь 10/10 90 м
[Sc]
+11.5 +10.2 92 +9 +9 1012.7 987.6
08 9.09 Ю 3 10 км слаб. дождь 10/10 210 м
[Sc]
+11.9 +10.3 90 +10 +10 1013.2 988.2
09 9.09 ЮЗ 3 15 км слаб. дождь 9/9 300 м
[Sc Ac trans]
+13.5 +10.3 81 +12 +13 1013.0 988.1
10 9.09 ЮЗ 3 15 км 8/4 630 м
[Sc Ac trans Ci fib]
+15.6 +10.6 72 +15 +19 1013.0 988.3
11 9.09 З 4 15 км 6/6 800 м
[Sc Ac trans]
+17.3 +9.0 58 +17 +20 1012.9 988.3
12 9.09 З 3 15 км {дождь} 8/4 960 м
[Sc Ac trans]
+16.5 +9.4 63 +16 +19 1013.6 989.0 0.1
13 9.09 ЮЗ 4 15 км слаб. дождь 9/4 930 м
[Sc Ac As Ci fib]
+16.3 +9.3 63 +16 +18 1012.8 988.2
14 9.09 ЮЗ 3 15 км слаб. дождь 9/4 900 м
[Sc Ac As]
+14.8 +11.2 79 +14 +15 1012.8 988.0
15 9.09 З 3 15 км слаб. дождь 9/9 930 м
[Sc Ac trans]
+16.0 +9.7 66 +16 +16 1013.1 988.4
16 9.09 ЮЗ 4 15 км слаб. дождь 9/4 900 м
[Sc Cs]
+15.7 +9.6 67 +15 +15 1013.7 989.0
17 9.09 ЮЗ 3 15 км 8/8 1410 м
[Sc Ac trans]
+15.1 +9.5 69 +14 +14 1014.0 989.2
18 9.09 ЮЗ 3 15 км {дождь} 9/9 1500 м
[Sc]
+14.1 +9.5 74 +13 +13 1015.3 990.4 +18.1 0.2
19 9.09 ЮЗ 3 15 км 9/6 1500 м
[Sc Ac As]
+13.7 +9.6 76 +13 +13 1016.2 991.2
20 9.09 ЮЗ 3 15 км 9/9 1500 м
[Sc Ac trans]
+13.8 +9.4 75 +13 +13 1016.6 991.6
21 9.09 ЮЗ 2 15 км 5/0 2000 м
[Ac As]
+12.9 +9.4 79 +12 +12 1016.8 991.8
22 9.09 Ю 2 <100 м н/о +11.5 +9.1 85 +10 +10 1017.2 992.1
23 9.09 нст 2 <100 м н/о +10.9 +9.0 88 +10 +10 1017.8 992.6
00 10.09 нст 2 <100 м н/о +10.7 +8.6 87 +9 +9 1018.1 992.9
01 10.09 нст 2 <100 м н/о +10.3 +7.9 85 +9 +9 1018.4 993.1
02 10.09 Ю 2 <100 м н/о +10.5 +8.8 89 +9 +9 1018.6 993.3
03 10.09 ЮВ 2 15 км 4/0
[Ci fib]
+9.7 +8.0 89 +8 +8 1019.3 993.9
04 10.09 ЮВ 2 15 км 4/0
[Ci fib]
+9.7 +8.3 91 +8 +8 1019.6 994.2
05 10.09 В 1 20 км 8/0
[Ci]
+8.5 +7.0 90 +8 +8 1020.0 994.4
06 10.09 ЮВ 1 20 км 9/0 2000 м
[Ac trans Ci]
+11.3 +9.7 90 +11 +12 1020.0 994.7 +8.1
07 10.09 В 1 20 км 9/6 1500 м
[Sc Ci fib]
+14.2 +11.2 82 +15 +16 1020.2 995.2
08 10.09 Ю 2 20 км 9/9 1500 м
[Sc Ci fib]
+16.0 +9.9 67 +16 +17 1020.5 995.6
09 10.09 ЮВ 4 20 км 8/8 1320 м
[Sc Ci fib]
+17.2 +10.1 63 +17 +18 1020.5 995.8
10 10.09 Ю 5 20 км 5/5 1440 м
[Sc Ci fib]
+18.4 +9.2 55 +18 +21 1020.4 995.8
11 10.09 ЮВ 5 20 км 5/4 1320 м
[Cu hum Ci fib]
+19.5 +10.8 57 +20 +24 1020.3 995.8
12 10.09 Ю 6 20 км 8/5 930 м
[Cu hum Ci]
+20.1 +11.3 57 +21 +23 комфорт 1020.3 995.8
13 10.09 ЮВ 6 20 км 6/6 1110 м
[Cu hum Ci fib]
+20.6 +10.1 51 +22 +23 комфорт 1020.2 995.8
14 10.09 ЮВ 6 20 км 8/6 1110 м
[Cu hum Ci fib]
+20.6 +11.0 54 +22 +23 комфорт 1019.8 995.3
15 10.09 Ю 6 20 км 9/5 1230 м
[Cu hum Ci]
+19.9 +10.9 56 +21 +22 комфорт 1019.9 995.4
16 10.09 ЮВ 3 20 км 8/3 1140 м
[Cu hum Ci fib]
+19.9 +10.6 55 +22 +22 комфорт 1020.0 995.5
17 10.09 ЮВ 2 20 км 8/1 1500 м
[Cu hum Ci fib]
+18.9 +10.7 59 +20 +20 1020.4 995.7
18 10.09 штиль 0 20 км 4/0
[Ci fib]
+16.0 +11.0 72 +16 +16 1020.9 996.0 +21.2
19 10.09 штиль 0 20 км 3/0
[Ci fib]
+14.6 +10.0 74 +14 +14 1021.3 996.3
20 10.09 СВ 1 20 км 4/0
[Ci]
+14.6 +10.4 76 +15 +15 1021.7 996.7
21 10.09 нст 1 20 км 4/0
[Ci fib]
+15.8 +10.6 71 +17 +17 1021.7 996.8
22 10.09 нст 2 <100 м н/о +16.4 +10.5 68 +17 +17 1021.7 996.9
23 10.09 нст 1 <100 м н/о +16.1 +10.2 68 +17 +17 1022.2 997.3
00 11.09 нст 3 <100 м н/о +15.3 +10.1 71 +15 +15 1022.2 997.3
01 11.09 Ю 3 <100 м н/о +15.2 +10.0 71 +15 +15 1022.1 997.1
02 11.09 нст 3 <100 м н/о +14.9 +9.7 71 +14 +14 1022.3 997.3
03 11.09 ЮВ 3 20 км 5/0
[Ci]
+14.5 +9.5 72 +14 +14 1022.6 997.6
04 11.09 В 3 20 км 6/0
[Cs]
+12.4 +8.7 78 +11 +11 1023.0 997.7
05 11.09 ЮВ 3 20 км 5/0
[Ci fib]
+13.9 +9.6 75 +13 +13 1023.1 998.0
06 11.09 В 1 20 км 4/0
[Ci fib]
+16.2 +10.3 68 +17 +18 1023.6 998.7 +11.9
07 11.09 В 3 20 км 3/0
[Ci fib]
+17.2 +10.8 66 +17 +20 1024.1 999.2
08 11.09 В 4 20 км 3/0
[Ci fib]
+19.4 +10.7 57 +20 +24 1024.3 999.6
09 11.09 ЮВ 3 20 км 4/0
[Ci fib]
+19.9 +10.3 54 +22 +28 комфорт 1024.7 1000.0
10 11.09 Ю 4 20 км 4/0
[Ci fib]
+21.4 +10.6 50 +23 +30 комфорт 1024.5 1000.0
11 11.09 Ю 3 20 км 3/0
[Ci fib]
+22.7 +11.2 48 +25 +33 комфорт 1024.3 999.9
12 11.09 Ю 3 20 км 3/0
[Ci fib]
+23.1 +9.9 43 +25 +33 комфорт 1024.0 999.6
13 11.09 Ю 4 20 км 3/0
[Ci fib]
+22.7 +9.2 42 +24 +29 комфорт 1023.9 999.5
14 11.09 Ю 3 20 км 3/0
[Ci fib]
+23.7 +7.8 36 +24 +28 комфорт 1023.5 999.2
15 11.09 Ю 2 20 км 3/0
[Ci fib]
+23.8 +10.2 42 +25 +27 комфорт 1023.4 999.1
16 11.09 Ю 2 20 км 3/0
[Ci fib]
+22.8 +9.2 42 +24 +25 комфорт 1023.6 999.2
17 11.09 ЮВ 1 20 км 4/0
[Ac trans Ci fib]
+19.7 +11.2 58 +22 +22 комфорт 1024.1 999.5
18 11.09 ЮВ 1 20 км 4/0
[Ac trans Ci fib]
+16.0 +11.8 76 +17 +17 1025.0 1000.0 +24.4
19 11.09 штиль 0 20 км 3/0
[Ci fib]
+13.9 +10.7 81 +14 +14 1025.6 1000.4
20 11.09 штиль 0 20 км 3/0
[Ci fib]
+12.8 +10.3 85 +12 +12 1026.2 1001.0
21 11.09 штиль 0 20 км 3/0
[Ci fib]
+11.7 +9.8 88 +11 +11 1026.7 1001.3
22 11.09 штиль 0 <100 м н/о +11.2 +9.8 91 +11 +11 1026.7 1001.2
23 11.09 штиль 0 <100 м н/о +10.9 +9.5 91 +10 +10 1027.1 1001.6
00 12.09 ЮВ 2 <100 м н/о +10.9 +9.5 91 +10 +10 1027.3 1001.8
01 12.09 нст 2 <100 м н/о +10.5 +9.1 91 +9 +9 1027.6 1002.0
02 12.09 ЮВ 1 <100 м н/о +10.5 +9.2 92 +10 +10 1027.8 1002.3
03 12.09 Ю 1 20 км 1/0
[Ci fib]
+10.6 +9.5 93 +10 +10 1028.5 1003.0
04 12.09 штиль 0 20 км местами туман поземный 1/0
[Ci fib]
+10.6 +9.8 95 +10 +10 1028.9 1003.3
05 12.09 Ю 1 12 км местами туман поземный 1/1 1500 м
[Sc]
+10.1 +9.3 95 +10 +10 1029.5 1003.9
06 12.09 Ю 1 12 км ясно +12.6 +11.8 95 +13 +14 1029.8 1004.4 +10.0
07 12.09 нст 1 12 км 4/1 500 м
[Sc Ac trans]
+15.0 +12.9 87 +15 +18 1030.4 1005.2
08 12.09 СЗ 3 20 км 4/1 1500 м
[Sc Ci]
+17.8 +12.3 70 +18 +22 1031.0 1006.0
09 12.09 СЗ 3 20 км ясно +19.8 +10.8 56 +21 +29 комфорт 1030.8 1006.0
10 12.09 СЗ 4 20 км ясно +21.8 +10.0 47 +23 +30 комфорт 1030.6 1006.0
11 12.09 СЗ 5 20 км 4/4 1470 м
[Sc]
+22.4 +8.9 42 +24 +27 комфорт 1030.5 1005.9
12 12.09 СЗ 4 20 км 6/6 1500 м
[Cu hum]
+23.3 +8.2 38 +24 +27 комфорт 1030.1 1005.6
13 12.09 СЗ 5 20 км 6/6 1500 м
[Cu hum]
+24.0 +10.0 41 +25 +27 комфорт 1029.8 1005.3
14 12.09 З 4 20 км 6/6 1500 м
[Cu hum]
+23.2 +10.6 45 +25 +27 комфорт 1029.7 1005.2
15 12.09 З 2 20 км 6/6 1440 м
[Cu hum]
+23.3 +10.0 43 +25 +26 комфорт 1029.3 1004.8
16 12.09 СЗ 3 20 км 5/5 1500 м
[Cu Sc]
+22.7 +9.8 44 +24 +25 комфорт 1029.3 1004.8
17 12.09 СЗ 3 20 км 4/4 1500 м
[Sc]
+20.7 +11.4 55 +23 +23 комфорт 1029.9 1005.2
18 12.09 СЗ 1 20 км 1/0 2000 м
[Ac trans]
+19.0 +11.6 62 +21 +21 комфорт 1030.4 1005.6 +25.0
19 12.09 штиль 0 20 км ясно +15.1 +11.7 80 +15 +15 1030.9 1005.8
20 12.09 ЮВ 2 20 км ясно +13.5 +11.4 87 +13 +13 1031.5 1006.2
21 12.09 В 1 15 км ясно +13.1 +11.3 89 +13 +13 1031.7 1006.3
22 12.09 штиль 0 <100 м н/о +12.4 +10.8 90 +12 +12 1031.5 1006.0
23 12.09 Ю 1 <100 м н/о +12.2 +11.1 93 +12 +12 1031.5 1006.0
00 13.09 Ю 1 <100 м н/о +12.1 +11.2 94 +12 +12 1031.5 1006.0
01 13.09 ЮВ 1 <100 м н/о +11.4 +10.5 94 +11 +11 1031.6 1006.0
02 13.09 Ю 1 <100 м н/о +12.2 +11.4 95 +12 +12 1031.4 1005.9
03 13.09 ЮВ 1 15 км 8/0 2000 м
[Ac trans]
+12.7 +11.8 94 +13 +13 1031.4 1006.0
04 13.09 Ю 1 15 км 6/0 2000 м
[Ac trans]
+13.0 +11.9 93 +13 +13 1031.4 1006.0
05 13.09 ЮВ 1 15 км 8/5 1500 м
[Sc Ac trans]
+12.3 +11.2 93 +12 +12 1031.9 1006.4
06 13.09 Ю 1 20 км 3/0 2000 м
[Ac trans]
+14.5 +13.0 91 +15 +16 1031.4 1006.2 +11.3
07 13.09 Ю 1 20 км 1/0 2000 м
[Ac trans]
+17.8 +13.5 76 +19 +22 1031.2 1006.3
08 13.09 З 1 20 км 4/0 2000 м
[Ac trans]
+20.6 +12.8 61 +24 +29 комфорт 1031.1 1006.4
09 13.09 СЗ 2 20 км 8/8 1500 м
[Sc]
+20.3 +12.6 61 +23 +25 комфорт 1031.1 1006.4
10 13.09 С 2 20 км 4/4 1200 м
[Cu Sc]
+22.4 +12.1 52 +25 +31 комфорт 1030.3 1005.8
11 13.09 СЗ 3 20 км 6/6 1110 м
[Cu Sc]
+23.4 +13.3 53 +27 +30 душно 1030.1 1005.6
12 13.09 СЗ 4 20 км 6/6 1500 м
[Cu Sc]
+23.5 +11.2 46 +25 +28 комфорт 1029.7 1005.2
13 13.09 С 4 20 км 6/6 1350 м
[Cu Sc]
+23.8 +11.8 47 +25 +28 комфорт 1029.2 1004.8
14 13.09 С 5 20 км 6/6 1500 м
[Cu Sc]
+25.0 +11.6 43 +26 +28 жарко 1028.9 1004.6
15 13.09 СЗ 4 20 км 8/8 1500 м
[Cu Sc]
+24.0 +12.0 47 +26 +26 жарко 1028.9 1004.6
16 13.09 СЗ 2 20 км 9/0 2000 м
[Ac und]
+23.5 +12.5 50 +25 +26 комфорт 1028.8 1004.4
17 13.09 С 1 20 км 9/9 1500 м
[Sc]
+22.3 +13.4 57 +25 +25 комфорт 1029.1 1004.5
18 13.09 С 3 20 км 9/9 1500 м
[Sc]
+21.1 +13.8 63 +24 +24 комфорт 1029.4 1004.8 +26.2
19 13.09 С 3 20 км 9/9 1500 м
[Sc]
+21.0 +13.5 62 +24 +24 комфорт 1029.7 1005.1
20 13.09 С 2 20 км 8/0 2000 м
[Ac trans]
+19.5 +13.0 66 +22 +22 комфорт 1030.0 1005.2
21 13.09 ЮВ 1 20 км 3/0 2000 м
[Ac trans]
+16.0 +12.0 77 +17 +17 1030.8 1005.7
22 13.09 нст 1 <100 м н/о +14.6 +12.5 87 +15 +15 1030.9 1005.6
23 13.09 нст 1 <100 м н/о +14.0 +12.6 91 +14 +14 1030.9 1005.6
00 14.09 штиль 0 <100 м н/о +13.2 +11.9 92 +13 +13 1031.3 1005.9
01 14.09 нст 1 <100 м н/о +12.9 +11.8 93 +13 +13 1031.0 1005.6
02 14.09 штиль 0 <100 м н/о +12.0 +10.9 93 +11 +11 1031.1 1005.6
03 14.09 С 1 10 км местами туман поземный 6/3 1500 м
[Sc Ac trans]
+11.4 +10.6 95 +11 +11 1031.7 1006.1
04 14.09 С 3 10 км местами туман поземный 8/1 1500 м
[Sc Ac trans]
+11.9 +11.1 95 +10 +10 1031.8 1006.3
05 14.09 С 1 10 км местами туман поземный 6/0 2000 м
[Ac lent Ci fib]
+11.4 +10.6 95 +11 +11 1032.5 1006.9
06 14.09 Ю 1 15 км 4/0 2000 м
[Ac trans Ci fib]
+12.4 +11.3 93 +12 +13 1033.0 1007.5 +11.0
07 14.09 С 2 20 км 4/1 570 м
[Sc Ci fib]
+15.1 +12.2 83 +15 +17 1033.4 1008.1
08 14.09 С 2 20 км 6/4 570 м
[Sc Ci]
+17.5 +11.5 68 +18 +21 1033.2 1008.2
09 14.09 С 4 20 км 6/4 1020 м
[Sc Ci fib]
+18.8 +9.3 54 +19 +22 1032.8 1007.9
10 14.09 С 6 20 км 8/5 1080 м
[Sc Ci]
+18.7 +9.5 55 +19 +20 1033.0 1008.0
11 14.09 С 6 20 км 8/5 1110 м
[Sc Ci]
+19.5 +9.1 51 +20 +22 1032.4 1007.5
12 14.09 С 4 20 км 6/1 1200 м
[Sc Ci fib]
+20.2 +8.6 47 +21 +27 комфорт 1031.9 1007.1
13 14.09 С 6 20 км 6/1 1200 м
[Sc Ci fib]
+20.4 +8.1 45 +21 +24 комфорт 1031.5 1006.7
14 14.09 СЗ 5 20 км 4/1 1200 м
[Sc Ci fib]
+20.3 +8.0 45 +21 +24 комфорт 1031.2 1006.4
15 14.09 С 6 20 км 3/0
[Ci fib]
+19.9 +7.3 44 +20 +21 1030.6 1005.8
16 14.09 С 3 20 км 3/0
[Ci fib]
+19.2 +7.0 45 +20 +21 1030.1 1005.2
17 14.09 С 2 20 км 5/0
[Ac trans Ci]
+17.1 +7.7 54 +17 +17 1030.2 1005.2
18 14.09 СВ 2 20 км 4/0
[Ac trans Ci fib]
+13.0 +8.1 72 +12 +12 1031.0 1005.6 +20.9
19 14.09 СВ 2 20 км 3/0
[Ci fib]
+11.1 +6.8 75 +10 +10 1031.3 1005.7
20 14.09 СВ 1 20 км ясно +10.2 +6.4 77 +10 +10 1031.6 1005.9
21 14.09 штиль 0 20 км ясно +9.5 +5.9 78 +9 +9 1031.5 1005.8
22 14.09 нст 1 <100 м н/о +8.3 +5.8 84 +8 +8 1031.6 1005.8
23 14.09 Ю 1 <100 м н/о +7.6 +5.6 87 +7 +7 1030.9 1005.0
00 15.09 штиль 0 <100 м н/о +7.2 +5.4 88 +6 +6 1030.8 1004.8
01 15.09 штиль 0 <100 м н/о +6.7 +5.3 91 +6 +6 1030.4 1004.4
02 15.09 штиль 0 <100 м н/о +6.0 +4.8 92 +5 +5 1030.1 1004.0
03 15.09 штиль 0 20 км местами туман поземный ясно +6.1 +5.0 93 +5 +5 1030.0 1004.0
04 15.09 штиль 0 20 км местами туман поземный ясно +5.7 +4.8 94 +5 +5 1029.9 1003.9
05 15.09 штиль 0 20 км местами туман поземный 1/0
[Ci fib]
+5.2 +4.3 94 +4 +4 1029.8 1003.7
06 15.09 штиль 0 20 км 1/0
[Ci fib]
+8.6 +7.0 90 +8 +9 1029.4 1003.6 +5.5
07 15.09 штиль 0 20 км ясно +12.3 +9.7 84 +12 +16 1029.1 1003.7
08 15.09 штиль 0 20 км ясно +17.4 +8.6 56 +17 +25 1028.0 1003.1
09 15.09 Ю 1 20 км 5/3 1200 м
[Sc Ac trans Ci fib]
+19.1 +9.0 52 +21 +27 комфорт 1027.7 1003.0
10 15.09 Ю 2 20 км 5/1 1200 м
[Sc Ac trans Ci fib]
+20.8 +7.8 43 +23 +29 комфорт 1027.0 1002.4
11 15.09 Ю 3 20 км 4/0
[Ci fib]
+21.4 +8.3 43 +23 +30 комфорт 1026.0 1001.5
12 15.09 Ю 3 20 км 4/0
[Ci fib]
+21.6 +8.9 44 +23 +30 комфорт 1025.5 1000.9
13 15.09 Ю 3 20 км 1/0
[Ci fib]
+22.6 +9.4 43 +24 +30 комфорт 1024.6 1000.2
14 15.09 Ю 3 20 км ясно +23.0 +10.5 45 +25 +29 комфорт 1023.6 999.2
15 15.09 Ю 3 20 км ясно +23.0 +11.4 48 +25 +27 комфорт 1022.7 998.4
16 15.09 Ю 3 20 км 3/0
[Ci fib]
+22.6 +11.7 50 +25 +25 комфорт 1022.0 997.6
17 15.09 ЮВ 1 20 км 4/0
[Ci fib]
+20.1 +12.4 61 +23 +23 комфорт 1021.7 997.2
18 15.09 штиль 0 20 км 5/0
[Ci fib]
+16.2 +11.6 74 +16 +16 1022.0 997.1 +23.3
19 15.09 штиль 0 20 км 3/0
[Ci fib]
+15.0 +11.8 81 +15 +15 1021.9 997.0
20 15.09 ЮЗ 1 20 км 3/0
[Ci fib]
+14.9 +11.3 79 +15 +15 1021.7 996.7
21 15.09 штиль 0 20 км 3/0
[Ci fib]
+14.2 +11.5 84 +14 +14 1021.4 996.4

 

Местоположение метеостанции Малацки (Словакия): широта 48.40 долгота 17.15 высота над уровнем моря 205 м.

В архиве по умолчанию представлена погода в Малацки за последнюю неделю. Архивные данные за месяц целиком и за предыдущие месяцы, начиная с января 2011 года, Вы можете получить, выбрав интересующий диапазон дат из раскрывающегося списка и нажав кнопку "Ввод!".


*Определитесь, кто Вы:
робот инопланетянин человек

Внимание! Время в таблицах - всемирное. Для получения местного времени необходимо прибавить поправку, которая равна 1 ч.

Смотрите также архив погоды в соседних городах и на ближайших метеорологических станциях:

Погода в Малом Яровнику (Словакия) (17 км)
Погода в Братиславе (Словакия) (23 км)
Погода в Зверндорф-Маршег (Австрия) (25 км)
Погода в Братислава-Колибе (Словакия) (26 км)
Погода в Ясловске Богунице (Словакия) (39 км)
Погода в Мистельбахе (Австрия) (45 км)
Погода в Грос-Энцерсдорфе (Австрия) (48 км)
Погода в Пойсдорфе (Австрия) (49 км)
Погода в Вене аэропорт (Австрия) (53 км)
Погода в Нойзидль-ам-Зе (Австрия) (55 км)

Пояснения к столбцам:

Ветер - указаны скорость ветра в м/с - средняя за 10 мин, порывы в срок и между сроками (в фигурных скобках) и направление, откуда дует ветер: С - северный, СВ - северо-восточный, В - восточный, ЮВ - юго-восточный, Ю - южный, ЮЗ - юго-западный, З - западный, СЗ - северо-западный.
Видимость - горизонтальная дальность видимости в метрах или километрах. При видимости от 1 до 10 км при отсутствии осадков обычно наблюдается дымка, при ухудшении видимости до 1 км и менее - туман. В сухую погоду видимость может ухудшаться дымом, пылью или мглою.
Явления - указаны атмосферные явления, наблюдавшиеся в срок или в последний час перед сроком; фигурными скобками обозначены явления, наблюдавшиеся между сроками (за 1-3 часа до срока); квадратными скобками обозначены град или гололедные отложения с указанием их диаметра в мм.
Облачность - указаны через наклонную черту общая и нижняя облачность в баллах и высота нижней границы облаков в метрах; квадратными скобками обозначены формы облаков: Ci - перистые, Cs - перисто-слоистые, Cc - перисто-кучевые, Ac - высококучевые, As - высокослоистые, Sc - слоисто-кучевые, Ns - слоисто-дождевые, Cu - кучевые, Cb - кучево-дождевые. Подробнее классификацию облаков см. в Атласе облаков (PDF).
T - Температура воздуха - температура, измеренная на высоте 2 м над землей.
Td - Температура точки росы - температура, при понижении до которой содержащийся в воздухе водяной пар достигнет насыщения.
f - Относительная влажность воздуха - влажноcть воздуха, измеренная на высоте 2 м над землей.
Te - Эффективная температура - температура, которую ощущает одетый по сезону человек в тени. Характеристика душности погоды. При расчете учитывается влияние влажности воздуха и скорости ветра на теплоощущения человека.
Tes - Эффективная температура на солнце - температура, которую ощущает человек, с поправкой на солнечный нагрев. Характеристика знойности погоды. Зависит от высоты солнца над горизонтом, облачности и скорости ветра. Ночью, в пасмурную погоду, а также при ветре 12 м/с и более поправка равна нулю.
P - Атмосферное давление - приведенное к уровню моря атмосферное давление.
Po - Атмосферное давление - измеренное на уровне метеостанции атмосферное давление.
Tmin - Минимальная температура - минимум температуры воздуха на высоте 2 м над землей.
Tmax - Максимальная температура - максимум температуры воздуха на высоте 2 м над землей.
R - Количество осадков - Количество выпавших осадков за период времени, мм. При наведении курсора мыши на число - период времени, за который выпало указанное количество осадков.
R24 - Количество осадков - Количество выпавших осадков за 24 часа, мм.
S - Снежный покров - Высота снежного покрова, см. При наведении курсора мыши на число - состояние снежного покрова и степень покрытия местности в баллах.